sat.trackr.live / text

‹ back to catalog

STARLINK-32436

NORAD 61215 · 2024-171R

PAYLOAD ACTIVE UNKNOWN

§ Identity

Operator
Country
US
Launch date
2024-09-20
Launch site
AFWTR
Launch vehicle
Mass (kg)
RCS (m²)

Purposes: comms

External: N2YO · Heavens-Above · Gunter

§ Orbital elements

Epoch: 2026-05-24T21:57:21.578112Z

Period
94.10 min
Inclination
53.1613°
Eccentricity
0.0001097
Mean motion
15.30208873 rev/d
Perigee alt
474.4 km
Apogee alt
475.9 km
Semi-major
6,853.3 km
B*
-6.4309e-5
RAAN
328.0488°
Arg perigee
82.6394°
Mean anomaly
277.4731°
Rev number
9,404

§ Raw data

STARLINK-324361 61215U 24171R   26144.91483308 -.00002264  00000+0 -64309-4 0  99942 61215  53.1613 328.0488 0001097  82.6394 277.4731 15.30208873 94043

JSON: /api/v1/satellites/61215 · /tle

For live sub-satellite position, see the globe view (requires WebGL).

§ Visibility from observer

Set your observer location to see the next 7 days of passes ≥ 10°. The values pass through the URL so the page stays shareable.

No JS? Fill the form by hand. The geolocation button needs JavaScript.